Time,TemperatureF,DewpointF,PressureIn,WindDirection,WindDirectionDegrees,WindSpeedMPH,WindSpeedGustMPH,Humidity,HourlyPrecipIn,Conditions,Clouds,dailyrainin,SoftwareType,DateUTC
2013-02-19 00:01:00,25.0,16.0,-100.00,SSE,165,0.0,1.0,67,-99.99,,,-99.99,,2013-02-19 08:01:00,
2013-02-19 00:11:00,25.0,15.0,-100.00,NE,40,1.0,3.0,66,-99.99,,,-99.99,,2013-02-19 08:11:00,
2013-02-19 00:21:00,24.0,14.0,-100.00,South,185,0.0,1.0,64,-99.99,,,-99.99,,2013-02-19 08:21:00,
2013-02-19 00:31:00,25.0,14.0,-100.00,NE,41,1.0,2.0,62,-99.99,,,-99.99,,2013-02-19 08:31:00,
2013-02-19 00:42:00,25.0,13.0,-100.00,ENE,76,2.0,4.0,60,-99.99,,,-99.99,,2013-02-19 08:42:00,
2013-02-19 00:52:00,24.0,13.0,-100.00,ESE,112,1.0,2.0,62,-99.99,,,-99.99,,2013-02-19 08:52:00,
2013-02-19 01:01:00,24.0,13.0,-100.00,SE,136,1.0,3.0,63,-99.99,,,-99.99,,2013-02-19 09:01:00,
2013-02-19 01:11:00,24.0,12.0,-100.00,ENE,75,2.0,3.0,60,-99.99,,,-99.99,,2013-02-19 09:11:00,
2013-02-19 01:21:00,23.0,12.0,-100.00,East,97,1.0,3.0,62,-99.99,,,-99.99,,2013-02-19 09:21:00,
2013-02-19 01:31:00,23.0,11.0,-100.00,NE,48,1.0,3.0,60,-99.99,,,-99.99,,2013-02-19 09:31:00,
2013-02-19 01:41:00,24.0,11.0,-100.00,WNW,282,1.0,3.0,58,-99.99,,,-99.99,,2013-02-19 09:41:00,
2013-02-19 01:52:00,23.0,11.0,-100.00,SSW,207,1.0,3.0,60,-99.99,,,-99.99,,2013-02-19 09:52:00,
2013-02-19 02:01:00,24.0,11.0,-100.00,SE,131,1.0,4.0,57,-99.99,,,-99.99,,2013-02-19 10:01:00,
2013-02-19 02:11:00,24.0,11.0,-100.00,NNE,32,1.0,2.0,58,-99.99,,,-99.99,,2013-02-19 10:11:00,
2013-02-19 02:21:00,23.0,12.0,-100.00,NW,305,1.0,2.0,61,-99.99,,,-99.99,,2013-02-19 10:21:00,
2013-02-19 02:31:00,23.0,11.0,-100.00,ESE,107,2.0,3.0,59,-99.99,,,-99.99,,2013-02-19 10:31:00,
2013-02-19 02:41:00,22.0,11.0,-100.00,NE,41,0.0,3.0,62,-99.99,,,-99.99,,2013-02-19 10:41:00,
2013-02-19 02:51:00,22.0,11.0,-100.00,NE,51,1.0,3.0,61,-99.99,,,-99.99,,2013-02-19 10:51:00,
2013-02-19 03:01:00,22.0,13.0,-100.00,NW,320,1.0,4.0,68,-99.99,,,-99.99,,2013-02-19 11:01:00,
2013-02-19 03:11:00,24.0,21.0,-100.00,North,10,2.0,5.0,88,-99.99,,,-99.99,,2013-02-19 11:11:00,
2013-02-19 03:21:00,24.0,23.0,-100.00,ENE,74,3.0,5.0,96,-99.99,,,-99.99,,2013-02-19 11:21:00,
2013-02-19 03:31:00,22.0,21.0,-100.00,East,91,2.0,4.0,96,-99.99,,,-99.99,,2013-02-19 11:31:00,
2013-02-19 03:42:00,23.0,23.0,-100.00,ESE,114,3.0,4.0,98,-99.99,,,-99.99,,2013-02-19 11:42:00,
2013-02-19 03:52:00,23.0,22.0,-100.00,SSE,151,2.0,5.0,96,-99.99,,,-99.99,,2013-02-19 11:52:00,
2013-02-19 04:01:00,25.0,24.0,-100.00,ESE,115,3.0,4.0,96,-99.99,,,-99.99,,2013-02-19 12:01:00,
2013-02-19 04:12:00,26.0,25.0,-100.00,ESE,114,3.0,6.0,96,-99.99,,,-99.99,,2013-02-19 12:12:00,
2013-02-19 04:21:00,26.0,25.0,-100.00,SE,124,3.0,4.0,94,-99.99,,,-99.99,,2013-02-19 12:21:00,
2013-02-19 04:32:00,26.0,24.0,-100.00,ESE,119,3.0,5.0,93,-99.99,,,-99.99,,2013-02-19 12:32:00,
2013-02-19 04:42:00,27.0,26.0,-100.00,SE,124,4.0,5.0,96,-99.99,,,-99.99,,2013-02-19 12:42:00,
2013-02-19 04:52:00,27.0,26.0,-100.00,SE,127,4.0,6.0,95,-99.99,,,-99.99,,2013-02-19 12:52:00,
2013-02-19 05:01:00,27.0,25.0,-100.00,SE,124,2.0,6.0,93,-99.99,,,-99.99,,2013-02-19 13:01:00,
2013-02-19 05:11:00,28.0,27.0,-100.00,South,173,4.0,10.0,95,-99.99,,,-99.99,,2013-02-19 13:11:00,
2013-02-19 05:22:00,29.0,28.0,-100.00,South,180,7.0,10.0,97,-99.99,,,-99.99,,2013-02-19 13:22:00,
2013-02-19 05:31:00,29.0,28.0,-100.00,South,182,6.0,11.0,97,-99.99,,,-99.99,,2013-02-19 13:31:00,
2013-02-19 05:41:00,29.0,29.0,-100.00,South,187,6.0,11.0,98,-99.99,,,-99.99,,2013-02-19 13:41:00,
2013-02-19 05:52:00,29.0,29.0,-100.00,South,189,6.0,10.0,98,-99.99,,,-99.99,,2013-02-19 13:52:00,
2013-02-19 06:01:00,29.0,29.0,-100.00,SSW,200,4.0,11.0,99,-99.99,,,-99.99,,2013-02-19 14:01:00,
2013-02-19 06:11:00,28.0,28.0,-100.00,SSW,206,6.0,12.0,99,-99.99,,,-99.99,,2013-02-19 14:11:00,
2013-02-19 06:21:00,28.0,28.0,-100.00,South,190,3.0,8.0,99,-99.99,,,-99.99,,2013-02-19 14:21:00,
2013-02-19 06:32:00,29.0,29.0,-100.00,SW,228,2.0,6.0,99,-99.99,,,-99.99,,2013-02-19 14:32:00,
2013-02-19 06:41:00,29.0,29.0,-100.00,SW,214,5.0,9.0,99,-99.99,,,-99.99,,2013-02-19 14:41:00,
2013-02-19 06:52:00,28.0,28.0,-100.00,SSW,195,6.0,11.0,100,-99.99,,,-99.99,,2013-02-19 14:52:00,
2013-02-19 07:01:00,29.0,29.0,-100.00,SW,225,5.0,13.0,100,-99.99,,,-99.99,,2013-02-19 15:01:00,
2013-02-19 07:11:00,29.0,29.0,-100.00,SSW,210,6.0,12.0,100,-99.99,,,-99.99,,2013-02-19 15:11:00,
2013-02-19 07:21:00,28.0,28.0,-100.00,SSW,211,6.0,12.0,100,-99.99,,,-99.99,,2013-02-19 15:21:00,
2013-02-19 07:31:00,28.0,28.0,-100.00,SSW,196,7.0,13.0,100,-99.99,,,-99.99,,2013-02-19 15:31:00,
2013-02-19 07:42:00,28.0,28.0,-100.00,SSW,196,5.0,11.0,100,-99.99,,,-99.99,,2013-02-19 15:42:00,
2013-02-19 07:52:00,29.0,29.0,-100.00,SSW,200,4.0,9.0,100,-99.99,,,-99.99,,2013-02-19 15:52:00,
2013-02-19 08:01:00,29.0,29.0,-100.00,SW,216,5.0,9.0,100,-99.99,,,-99.99,,2013-02-19 16:01:00,
2013-02-19 08:11:00,29.0,29.0,-100.00,SW,230,4.0,8.0,100,-99.99,,,-99.99,,2013-02-19 16:11:00,
2013-02-19 08:21:00,29.0,29.0,-100.00,SW,223,4.0,9.0,100,-99.99,,,-99.99,,2013-02-19 16:21:00,
2013-02-19 08:31:00,29.0,29.0,-100.00,SW,223,4.0,9.0,100,-99.99,,,-99.99,,2013-02-19 16:31:00,
2013-02-19 08:41:00,29.0,29.0,-100.00,SSW,200,5.0,8.0,100,-99.99,,,-99.99,,2013-02-19 16:41:00,
2013-02-19 08:51:00,29.0,29.0,-100.00,SW,221,3.0,8.0,100,-99.99,,,-99.99,,2013-02-19 16:51:00,
2013-02-19 09:01:00,29.0,29.0,-100.00,SW,215,5.0,10.0,100,-99.99,,,-99.99,,2013-02-19 17:01:00,
2013-02-19 09:11:00,29.0,29.0,-100.00,SSW,208,5.0,12.0,100,-99.99,,,-99.99,,2013-02-19 17:11:00,
2013-02-19 09:21:00,29.0,29.0,-100.00,SW,225,4.0,8.0,100,-99.99,,,-99.99,,2013-02-19 17:21:00,
2013-02-19 09:31:00,30.0,30.0,-100.00,SSW,210,5.0,9.0,100,-99.99,,,-99.99,,2013-02-19 17:31:00,
2013-02-19 09:41:00,30.0,30.0,-100.00,SW,215,5.0,10.0,100,-99.99,,,-99.99,,2013-02-19 17:41:00,
2013-02-19 09:52:00,30.0,30.0,-100.00,SW,226,6.0,10.0,100,-99.99,,,-99.99,,2013-02-19 17:52:00,
2013-02-19 10:01:00,30.0,30.0,-100.00,SSW,213,5.0,10.0,100,-99.99,,,-99.99,,2013-02-19 18:01:00,
2013-02-19 10:11:00,30.0,30.0,-100.00,SW,218,6.0,13.0,100,-99.99,,,-99.99,,2013-02-19 18:11:00,
2013-02-19 10:21:00,30.0,30.0,-100.00,SW,231,5.0,11.0,99,-99.99,,,-99.99,,2013-02-19 18:21:00,
2013-02-19 10:31:00,31.0,31.0,-100.00,SW,215,6.0,11.0,98,-99.99,,,-99.99,,2013-02-19 18:31:00,
2013-02-19 10:41:00,31.0,30.0,-100.00,SW,228,6.0,11.0,97,-99.99,,,-99.99,,2013-02-19 18:41:00,
2013-02-19 10:51:00,31.0,30.0,-100.00,SW,224,6.0,14.0,97,-99.99,,,-99.99,,2013-02-19 18:51:00,
2013-02-19 11:01:00,31.0,30.0,-100.00,SW,218,7.0,14.0,97,-99.99,,,-99.99,,2013-02-19 19:01:00,
2013-02-19 11:11:00,30.0,30.0,-100.00,SW,219,7.0,13.0,99,-99.99,,,-99.99,,2013-02-19 19:11:00,
2013-02-19 11:21:00,31.0,31.0,-100.00,SW,215,7.0,14.0,98,-99.99,,,-99.99,,2013-02-19 19:21:00,
2013-02-19 11:31:00,31.0,30.0,-100.00,SW,219,5.0,14.0,96,-99.99,,,-99.99,,2013-02-19 19:31:00,
2013-02-19 11:41:00,31.0,30.0,-100.00,SSW,210,7.0,13.0,97,-99.99,,,-99.99,,2013-02-19 19:41:00,
2013-02-19 11:51:00,31.0,31.0,-100.00,SSW,208,8.0,14.0,98,-99.99,,,-99.99,,2013-02-19 19:51:00,
2013-02-19 12:01:00,31.0,31.0,-100.00,SSW,203,7.0,15.0,99,-99.99,,,-99.99,,2013-02-19 20:01:00,
2013-02-19 12:11:00,31.0,31.0,-100.00,SSW,201,9.0,16.0,99,-99.99,,,-99.99,,2013-02-19 20:11:00,
2013-02-19 12:21:00,31.0,31.0,-100.00,SSW,211,9.0,17.0,100,-99.99,,,-99.99,,2013-02-19 20:21:00,
2013-02-19 12:31:00,31.0,31.0,-100.00,SW,216,8.0,14.0,100,-99.99,,,-99.99,,2013-02-19 20:31:00,
2013-02-19 12:41:00,31.0,31.0,-100.00,SSW,206,9.0,16.0,100,-99.99,,,-99.99,,2013-02-19 20:41:00,
2013-02-19 12:52:00,31.0,31.0,-100.00,SW,218,6.0,14.0,100,-99.99,,,-99.99,,2013-02-19 20:52:00,
2013-02-19 13:01:00,31.0,31.0,-100.00,SSW,208,7.0,13.0,100,-99.99,,,-99.99,,2013-02-19 21:01:00,
2013-02-19 13:11:00,31.0,31.0,-100.00,SSW,208,9.0,18.0,100,-99.99,,,-99.99,,2013-02-19 21:11:00,
2013-02-19 13:21:00,31.0,31.0,-100.00,SSW,210,8.0,14.0,100,-99.99,,,-99.99,,2013-02-19 21:21:00,
2013-02-19 13:31:00,31.0,31.0,-100.00,SSW,203,10.0,19.0,100,-99.99,,,-99.99,,2013-02-19 21:31:00,
2013-02-19 13:42:00,31.0,31.0,-100.00,SSW,203,10.0,19.0,100,-99.99,,,-99.99,,2013-02-19 21:42:00,
2013-02-19 13:51:00,31.0,31.0,-100.00,SSW,206,10.0,17.0,100,-99.99,,,-99.99,,2013-02-19 21:51:00,
2013-02-19 14:01:00,31.0,31.0,-100.00,SSW,201,11.0,20.0,100,-99.99,,,-99.99,,2013-02-19 22:01:00,
2013-02-19 14:11:00,31.0,31.0,-100.00,SSW,208,7.0,15.0,100,-99.99,,,-99.99,,2013-02-19 22:11:00,
2013-02-19 14:21:00,32.0,32.0,-100.00,SSW,200,9.0,17.0,100,-99.99,,,-99.99,,2013-02-19 22:21:00,
2013-02-19 14:31:00,32.0,32.0,-100.00,SW,216,6.0,12.0,100,-99.99,,,-99.99,,2013-02-19 22:31:00,
2013-02-19 14:41:00,32.0,32.0,-100.00,SSW,206,5.0,11.0,100,-99.99,,,-99.99,,2013-02-19 22:41:00,
2013-02-19 14:51:00,32.0,32.0,-100.00,SSW,213,7.0,14.0,100,-99.99,,,-99.99,,2013-02-19 22:51:00,
2013-02-19 15:01:00,32.0,32.0,-100.00,SSW,205,7.0,12.0,100,-99.99,,,-99.99,,2013-02-19 23:01:00,
2013-02-19 15:11:00,32.0,32.0,-100.00,SSW,205,6.0,11.0,100,-99.99,,,-99.99,,2013-02-19 23:11:00,
2013-02-19 15:21:00,32.0,32.0,-100.00,SSW,200,9.0,14.0,100,-99.99,,,-99.99,,2013-02-19 23:21:00,
2013-02-19 15:31:00,32.0,32.0,-100.00,SSW,201,8.0,15.0,100,-99.99,,,-99.99,,2013-02-19 23:31:00,
2013-02-19 15:41:00,32.0,32.0,-100.00,SSW,205,8.0,16.0,100,-99.99,,,-99.99,,2013-02-19 23:41:00,
2013-02-19 15:52:00,32.0,32.0,-100.00,SSW,206,11.0,23.0,100,-99.99,,,-99.99,,2013-02-19 23:52:00,
2013-02-19 16:01:00,32.0,32.0,-100.00,SSW,206,11.0,24.0,100,-99.99,,,-99.99,,2013-02-20 00:01:00,
2013-02-19 16:11:00,32.0,32.0,-100.00,SSW,204,13.0,24.0,100,-99.99,,,-99.99,,2013-02-20 00:11:00,
2013-02-19 16:21:00,32.0,32.0,-100.00,SSW,205,13.0,23.0,100,-99.99,,,-99.99,,2013-02-20 00:21:00,
2013-02-19 16:31:00,32.0,32.0,-100.00,SSW,205,12.0,24.0,100,-99.99,,,-99.99,,2013-02-20 00:31:00,
2013-02-19 16:41:00,32.0,32.0,-100.00,SSW,206,14.0,25.0,100,-99.99,,,-99.99,,2013-02-20 00:41:00,
2013-02-19 16:51:00,32.0,32.0,-100.00,SSW,207,11.0,20.0,100,-99.99,,,-99.99,,2013-02-20 00:51:00,
2013-02-19 17:02:00,32.0,32.0,-100.00,SSW,207,11.0,20.0,100,-99.99,,,-99.99,,2013-02-20 01:02:00,
2013-02-19 17:11:00,32.0,32.0,-100.00,SSW,203,12.0,22.0,100,-99.99,,,-99.99,,2013-02-20 01:11:00,
2013-02-19 17:21:00,32.0,32.0,-100.00,SSW,203,12.0,22.0,100,-99.99,,,-99.99,,2013-02-20 01:21:00,
2013-02-19 17:31:00,31.0,31.0,-100.00,SSW,203,14.0,25.0,100,-99.99,,,-99.99,,2013-02-20 01:31:00,
2013-02-19 17:41:00,31.0,31.0,-100.00,SSW,205,13.0,22.0,100,-99.99,,,-99.99,,2013-02-20 01:41:00,
2013-02-19 17:51:00,31.0,31.0,-100.00,SSW,203,12.0,23.0,100,-99.99,,,-99.99,,2013-02-20 01:51:00,
2013-02-19 18:01:00,31.0,31.0,-100.00,SSW,207,12.0,24.0,100,-99.99,,,-99.99,,2013-02-20 02:01:00,
2013-02-19 18:11:00,30.0,30.0,-100.00,SSW,205,14.0,25.0,100,-99.99,,,-99.99,,2013-02-20 02:11:00,
2013-02-19 18:21:00,30.0,30.0,-100.00,SSW,203,11.0,23.0,100,-99.99,,,-99.99,,2013-02-20 02:21:00,
2013-02-19 18:31:00,30.0,30.0,-100.00,SSW,209,11.0,21.0,100,-99.99,,,-99.99,,2013-02-20 02:31:00,
2013-02-19 18:41:00,30.0,30.0,-100.00,SSW,204,11.0,23.0,100,-99.99,,,-99.99,,2013-02-20 02:41:00,
2013-02-19 18:52:00,29.0,29.0,-100.00,SSW,199,10.0,18.0,100,-99.99,,,-99.99,,2013-02-20 02:52:00,
2013-02-19 19:01:00,29.0,29.0,-100.00,SSW,198,10.0,19.0,100,-99.99,,,-99.99,,2013-02-20 03:01:00,
2013-02-19 19:12:00,29.0,29.0,-100.00,SSW,201,11.0,21.0,100,-99.99,,,-99.99,,2013-02-20 03:12:00,
2013-02-19 19:21:00,29.0,29.0,-100.00,SSW,196,11.0,18.0,100,-99.99,,,-99.99,,2013-02-20 03:21:00,
2013-02-19 19:32:00,29.0,29.0,-100.00,SSW,203,9.0,19.0,100,-99.99,,,-99.99,,2013-02-20 03:32:00,
2013-02-19 19:41:00,29.0,29.0,-100.00,SSW,204,9.0,21.0,100,-99.99,,,-99.99,,2013-02-20 03:41:00,
2013-02-19 19:51:00,29.0,29.0,-100.00,SSW,202,10.0,18.0,100,-99.99,,,-99.99,,2013-02-20 03:51:00,
2013-02-19 20:01:00,29.0,29.0,-100.00,SSW,201,12.0,19.0,100,-99.99,,,-99.99,,2013-02-20 04:01:00,
2013-02-19 20:11:00,29.0,29.0,-100.00,SSW,203,10.0,18.0,100,-99.99,,,-99.99,,2013-02-20 04:11:00,
2013-02-19 20:21:00,30.0,30.0,-100.00,SSW,200,13.0,22.0,100,-99.99,,,-99.99,,2013-02-20 04:21:00,
2013-02-19 20:31:00,30.0,30.0,-100.00,SSW,205,7.0,17.0,100,-99.99,,,-99.99,,2013-02-20 04:31:00,
2013-02-19 20:41:00,30.0,30.0,-100.00,SSW,202,12.0,19.0,100,-99.99,,,-99.99,,2013-02-20 04:41:00,
2013-02-19 20:51:00,30.0,30.0,-100.00,SSW,206,12.0,21.0,100,-99.99,,,-99.99,,2013-02-20 04:51:00,
2013-02-19 21:02:00,29.0,29.0,-100.00,SSW,198,12.0,20.0,100,-99.99,,,-99.99,,2013-02-20 05:02:00,
2013-02-19 21:12:00,29.0,29.0,-100.00,SSW,201,9.0,23.0,100,-99.99,,,-99.99,,2013-02-20 05:12:00,
2013-02-19 21:22:00,28.0,28.0,-100.00,SSW,207,6.0,15.0,100,-99.99,,,-99.99,,2013-02-20 05:22:00,
2013-02-19 21:32:00,28.0,28.0,-100.00,SW,235,6.0,12.0,100,-99.99,,,-99.99,,2013-02-20 05:32:00,
2013-02-19 21:42:00,29.0,29.0,-100.00,SW,236,6.0,17.0,100,-99.99,,,-99.99,,2013-02-20 05:42:00,
2013-02-19 21:52:00,29.0,29.0,-100.00,WSW,241,7.0,17.0,100,-99.99,,,-99.99,,2013-02-20 05:52:00,
2013-02-19 22:01:00,29.0,29.0,-100.00,WSW,241,7.0,17.0,100,-99.99,,,-99.99,,2013-02-20 06:01:00,
2013-02-19 22:11:00,29.0,29.0,-100.00,WSW,240,6.0,17.0,100,-99.99,,,-99.99,,2013-02-20 06:11:00,
2013-02-19 22:21:00,29.0,29.0,-100.00,WSW,237,5.0,17.0,100,-99.99,,,-99.99,,2013-02-20 06:21:00,
2013-02-19 22:31:00,29.0,29.0,-100.00,SSW,208,6.0,17.0,100,-99.99,,,-99.99,,2013-02-20 06:31:00,
2013-02-19 22:42:00,29.0,29.0,-100.00,SSW,205,10.0,17.0,100,-99.99,,,-99.99,,2013-02-20 06:42:00,
2013-02-19 22:51:00,29.0,29.0,-100.00,SSW,198,9.0,17.0,100,-99.99,,,-99.99,,2013-02-20 06:51:00,
2013-02-19 23:01:00,29.0,29.0,-100.00,SSW,207,9.0,21.0,100,-99.99,,,-99.99,,2013-02-20 07:01:00,
2013-02-19 23:11:00,29.0,29.0,-100.00,SSW,201,8.0,13.0,100,-99.99,,,-99.99,,2013-02-20 07:11:00,
2013-02-19 23:21:00,29.0,29.0,-100.00,SSW,198,8.0,15.0,100,-99.99,,,-99.99,,2013-02-20 07:21:00,
2013-02-19 23:31:00,28.0,28.0,-100.00,SSW,201,6.0,11.0,100,-99.99,,,-99.99,,2013-02-20 07:31:00,
2013-02-19 23:41:00,28.0,28.0,-100.00,SSW,201,6.0,11.0,100,-99.99,,,-99.99,,2013-02-20 07:41:00,
2013-02-19 23:51:00,29.0,29.0,-100.00,SSW,204,8.0,14.0,100,-99.99,,,-99.99,,2013-02-20 07:51:00,